Regional Weather Roundup
Issued by NWS

Home | Current Version | Previous Version | Graphics & Text | Print | Product List | Glossary On
Versions: 1 2 3 4 5 6 7 8 9 10 11 12 13 14 15 16 17 18 19 20 21 22 23 24 25 26 27
000
ASUS45 KCYS 230710
RWRWY

WYOMING REGIONAL WEATHER ROUNDUP
NATIONAL WEATHER SERVICE CHEYENNE WY
100 AM MDT SUN JUL 23 2017

NOTE:  "FAIR" INDICATES FEW OR NO CLOUDS BELOW 12,000 FEET
WITH NO SIGNIFICANT WEATHER AND/OR OBSTRUCTIONS TO VISIBILITY.

WYZ001-230800-
YELLOWSTONE NATIONAL PARK

CITY           SKY/WX    TMP DP  RH WIND       PRES   REMARKS
LK YELLOWSTONE   N/A     46  36  68 NW3       30.42S
W YELLOWSTONE  NOT AVBL

$$
WYZ002>013-054>058-071-098>099-230800-
NORTHERN WYOMING

CITY           SKY/WX    TMP DP  RH WIND       PRES   REMARKS
JACKSON        FAIR      50  39  66 NE6       30.30S
CODY           FAIR      66  37  34 SW6       30.21S
GREYBULL       FAIR      68  37  32 W7        30.08S
WORLAND        FAIR      62  39  42 S7        30.11S
SHERIDAN       FAIR      59  43  55 SW7       30.14S
BUFFALO        FAIR      63  35  35 W7        30.22S
GILLETTE       FAIR      55  37  50 CALM      30.17S
HULETT         FAIR      66  37  34 E6        30.17F
NEWCASTLE      FAIR      73  30  20 NE13      30.15S

$$
WYZ014>020-022>026-101>103-230800-
CENTRAL WYOMING

CITY           SKY/WX    TMP DP  RH WIND       PRES   REMARKS
BIG PINEY      FAIR      54  37  52 S3        30.33R
PINEDALE       FAIR      52  41  66 NW10G17   30.33F
DUBOIS         FAIR      54  32  43 NW10      30.35S
LANDER         FAIR      69  34  27 W14       30.21R
RIVERTON       FAIR      71  31  22 NE10      30.19S
CASPER         FAIR      59  36  42 N12       30.19S
DOUGLAS        FAIR      62  52  69 E5        30.17F

$$
WYZ021-027>030-104>119-230800-
SOUTHERN WYOMING

CITY           SKY/WX    TMP DP  RH WIND       PRES   REMARKS
EVANSTON       FAIR      70  31  23 N5        30.33S
KEMMERER         N/A     59  30  33 CALM      30.34S
FORT BRIDGER   FAIR      70  26  19 W5        30.35R
ROCK SPRINGS   FAIR      67  28  23 SW6       30.28R
RAWLINS        FAIR      56  29  35 NE5       30.29F
SARATOGA       FAIR      54  41  62 SE12      30.32F
LARAMIE        FAIR      58  48  69 S9        30.34S
CHEYENNE       FAIR      63  48  58 W5        30.27S
TORRINGTON     FAIR      65  53  65 E7        30.13S
PINE BLUFFS    FAIR      59  46  63 NE5       30.22S

$$




USA.gov is the U.S. government's official web portal to all federal, state and local government web resources and services.